GW4820 Weather Reports


Display with metric or nautical units.
time (UTC)temp
F
wind
direction
speed
MPH
gust
MPH
rain 1hr
in
rain 24hr
in
rain mn
in
humidity
%
barometer
mb
20260510225321 78 226 2.0 2.0 0.00 0.00 0.00 34 1015.8
20260510224818 78 227 1.0 2.0 0.00 0.00 0.00 34 1015.6
20260510224314 78 224 1.0 2.0 0.00 0.00 0.00 34 1015.8
20260510223811 79 217 1.0 1.0 0.00 0.00 0.00 35 1015.6
20260510223308 79 225 1.0 2.0 0.00 0.00 0.00 34 1015.8
20260510222806 79 212 1.0 1.0 0.00 0.00 0.00 33 1015.6
20260510222305 79 208 1.0 2.0 0.00 0.00 0.00 35 1015.7
20260510221757 79 225 1.0 3.0 0.00 0.00 0.00 32 1015.8
20260510221255 79 238 1.0 3.0 0.00 0.00 0.00 32 1015.7
20260510220751 79 238 1.0 2.0 0.00 0.00 0.00 33 1015.8
20260510220247 80 237 2.0 3.0 0.00 0.00 0.00 33 1015.7
20260510215744 80 217 1.0 2.0 0.00 0.00 0.00 33 1015.8
20260510215241 81 47 0.0 1.0 0.00 0.00 0.00 34 1015.6
20260510214738 81 183 1.0 2.0 0.00 0.00 0.00 31 1015.6
20260510214236 82 223 0.0 2.0 0.00 0.00 0.00 29 1015.5
20260510213732 82 150 1.0 2.0 0.00 0.00 0.00 30 1015.7
20260510213229 83 237 2.0 2.0 0.00 0.00 0.00 30 1015.5
20260510212725 83 226 2.0 2.0 0.00 0.00 0.00 29 1015.7
20260510212223 82 271 1.0 3.0 0.00 0.00 0.00 31 1015.7
20260510211719 82 250 1.0 3.0 0.00 0.00 0.00 30 1015.5
20260510211219 82 221 2.0 3.0 0.00 0.00 0.00 29 1015.6
20260510210716 82 233 1.0 1.0 0.00 0.00 0.00 28 1015.7
20260510210211 84 225 2.0 3.0 0.00 0.00 0.00 28 1015.8
20260510205711 83 268 0.0 2.0 0.00 0.00 0.00 28 1015.8
20260510205206 82 229 2.0 4.0 0.00 0.00 0.00 29 1015.6
20260510204703 82 222 2.0 3.0 0.00 0.00 0.00 30 1015.6
20260510204200 81 219 0.0 1.0 0.00 0.00 0.00 30 1015.7
20260510203657 81 224 2.0 2.0 0.00 0.00 0.00 29 1015.7
20260510203154 82 192 1.0 6.0 0.00 0.00 0.00 28 1016.0
20260510202653 82 205 2.0 2.0 0.00 0.00 0.00 31 1015.7
20260510202148 82 227 2.0 2.0 0.00 0.00 0.00 30 1015.8
20260510201646 81 264 2.0 4.0 0.00 0.00 0.00 28 1015.9
20260510201143 81 217 4.0 6.0 0.00 0.00 0.00 30 1016.0
20260510200640 81 75 1.0 2.0 0.00 0.00 0.00 29 1015.9
20260510200137 81 216 3.0 6.0 0.00 0.00 0.00 29 1016.1
20260510195634 81 60 0.0 2.0 0.00 0.00 0.00 29 1016.1
20260510195131 81 42 1.0 1.0 0.00 0.00 0.00 28 1016.0
20260510194630 81 261 2.0 2.0 0.00 0.00 0.00 32 1016.2
20260510194127 81 82 0.0 1.0 0.00 0.00 0.00 30 1016.3
20260510193622 80 268 0.0 1.0 0.00 0.00 0.00 28 1016.3
20260510193118 80 119 0.0 1.0 0.00 0.00 0.00 28 1016.4
20260510192612 82 26 1.0 1.0 0.00 0.00 0.00 28 1016.4
20260510192108 82 200 0.0 1.0 0.00 0.00 0.00 28 1016.3
20260510191605 82 227 2.0 2.0 0.00 0.00 0.00 27 1016.4
20260510191102 82 299 1.0 1.0 0.00 0.00 0.00 27 1016.4
20260510190559 81 209 0.0 2.0 0.00 0.00 0.00 27 1016.4
20260510190057 80 203 2.0 4.0 0.00 0.00 0.00 28 1016.5
20260510185554 81 149 2.0 3.0 0.00 0.00 0.00 27 1016.4
20260510185051 80 242 2.0 2.0 0.00 0.00 0.00 28 1016.5
20260510184548 82 294 1.0 3.0 0.00 0.00 0.00 28 1016.5
20260510184043 81 204 2.0 3.0 0.00 0.00 0.00 28 1016.5
20260510183538 81 233 3.0 3.0 0.00 0.00 0.00 27 1016.5
20260510183034 81 229 0.0 1.0 0.00 0.00 0.00 29 1016.6
20260510182531 81 193 1.0 3.0 0.00 0.00 0.00 30 1016.5
20260510182026 80 154 1.0 2.0 0.00 0.00 0.00 29 1016.4
20260510181525 80 180 1.0 2.0 0.00 0.00 0.00 28 1016.6
20260510181020 80 142 1.0 1.0 0.00 0.00 0.00 29 1016.8
20260510180517 80 212 1.0 3.0 0.00 0.00 0.00 29 1016.8
20260510180015 81 275 2.0 4.0 0.00 0.00 0.00 33 1016.8
20260510175510 81 176 2.0 4.0 0.00 0.00 0.00 29 1016.9
20260510175006 82 149 1.0 1.0 0.00 0.00 0.00 30 1016.9
20260510174504 81 218 1.0 2.0 0.00 0.00 0.00 27 1017.0
20260510174001 82 138 2.0 3.0 0.00 0.00 0.00 29 1017.0
20260510173457 80 173 2.0 2.0 0.00 0.00 0.00 28 1017.2
20260510172953 81 171 1.0 2.0 0.00 0.00 0.00 29 1017.3
20260510172449 80 189 2.0 3.0 0.00 0.00 0.00 29 1017.3
20260510171945 81 223 3.0 3.0 0.00 0.00 0.00 29 1017.4
20260510171443 81 170 2.0 3.0 0.00 0.00 0.00 27 1017.4
20260510170939 80 148 1.0 2.0 0.00 0.00 0.00 29 1017.3
20260510170436 80 278 0.0 1.0 0.00 0.00 0.00 30 1017.5
20260510165932 79 244 2.0 3.0 0.00 0.00 0.00 30 1017.2
20260510165428 80 163 2.0 2.0 0.00 0.00 0.00 31 1017.4
20260510164925 80 159 3.0 4.0 0.00 0.00 0.00 29 1017.4
20260510164422 80 178 2.0 3.0 0.00 0.00 0.00 33 1017.5
20260510163916 80 261 1.0 3.0 0.00 0.00 0.00 27 1017.4
20260510163408 80 206 0.0 1.0 0.00 0.00 0.00 29 1017.4
20260510162907 80 143 0.0 1.0 0.00 0.00 0.00 28 1017.6
20260510162405 79 183 2.0 2.0 0.00 0.00 0.00 25 1017.5
20260510161900 78 142 2.0 3.0 0.00 0.00 0.00 33 1017.4
20260510161356 78 127 1.0 2.0 0.00 0.00 0.00 32 1017.5
20260510160853 78 11 2.0 3.0 0.00 0.00 0.00 33 1017.5
20260510160351 78 57 1.0 1.0 0.00 0.00 0.00 36 1017.6
20260510155849 78 99 2.0 2.0 0.00 0.00 0.00 35 1017.5
20260510155347 77 68 1.0 2.0 0.00 0.00 0.00 35 1017.6
20260510154843 77 110 2.0 2.0 0.00 0.00 0.00 37 1017.6
20260510154339 77 49 0.0 2.0 0.00 0.00 0.00 36 1017.7
20260510153833 77 15 1.0 3.0 0.00 0.00 0.00 35 1017.7
20260510153329 77 69 1.0 2.0 0.00 0.00 0.00 35 1017.6
20260510152826 77 37 1.0 3.0 0.00 0.00 0.00 37 1017.7
20260510152323 77 78 0.0 2.0 0.00 0.00 0.00 39 1017.8
20260510151820 77 27 1.0 1.0 0.00 0.00 0.00 38 1017.8
20260510151318 77 50 1.0 2.0 0.00 0.00 0.00 38 1017.7
20260510150813 77 278 0.0 1.0 0.00 0.00 0.00 36 1017.7
20260510150309 77 1 2.0 2.0 0.00 0.00 0.00 39 1017.7
20260510145805 78 275 0.0 2.0 0.00 0.00 0.00 39 1017.7
20260510145305 76 104 0.0 1.0 0.00 0.00 0.00 41 1017.8
20260510144758 75 46 0.0 2.0 0.00 0.00 0.00 48 1017.7
20260510144255 75 113 0.0 0.0 0.00 0.00 0.00 47 1017.7
20260510143750 73 143 2.0 2.0 0.00 0.00 0.00 47 1017.7
20260510143246 73 2 0.0 2.0 0.00 0.00 0.00 49 1017.8
20260510142743 73 355 1.0 2.0 0.00 0.00 0.00 50 1017.9
20260510142240 73 46 1.0 2.0 0.00 0.00 0.00 49 1017.8
20260510141737 73 213 1.0 2.0 0.00 0.00 0.00 48 1017.7
20260510141235 72 264 0.0 1.0 0.00 0.00 0.00 54 1017.8
20260510140731 72 357 2.0 3.0 0.00 0.00 0.00 52 1017.8
20260510140226 72 262 0.0 1.0 0.00 0.00 0.00 62 1017.7
20260510135720 72 248 0.0 2.0 0.00 0.00 0.00 61 1017.8
20260510135216 72 249 0.0 1.0 0.00 0.00 0.00 60 1017.8
20260510134714 71 248 0.0 1.0 0.00 0.00 0.00 61 1017.8
20260510134211 70 247 1.0 1.0 0.00 0.00 0.00 66 1017.8
20260510133707 69 247 1.0 1.0 0.00 0.00 0.00 65 1017.7
20260510133203 68 247 0.0 1.0 0.00 0.00 0.00 69 1017.5
20260510132659 68 248 0.0 0.0 0.00 0.00 0.00 73 1017.5
20260510132156 67 248 0.0 2.0 0.00 0.00 0.00 73 1017.7
20260510131654 67 262 0.0 2.0 0.00 0.00 0.00 74 1017.6
20260510131151 66 261 0.0 1.0 0.00 0.00 0.00 78 1017.5
20260510130648 65 261 0.0 0.0 0.00 0.00 0.00 77 1017.5
20260510130145 65 262 0.0 1.0 0.00 0.00 0.00 80 1017.4
20260510125641 64 262 0.0 1.0 0.00 0.00 0.00 84 1017.4
20260510125137 64 262 1.0 1.0 0.00 0.00 0.00 85 1017.3
20260510124635 63 262 0.0 1.0 0.00 0.00 0.00 87 1017.4
20260510124131 62 262 0.0 1.0 0.00 0.00 0.00 89 1017.4
20260510123627 62 262 1.0 1.0 0.00 0.00 0.00 90 1017.3
20260510123123 61 262 0.0 0.0 0.00 0.00 0.00 91 1017.5
20260510122619 61 262 0.0 0.0 0.00 0.00 0.00 92 1017.3
20260510122115 60 262 0.0 1.0 0.00 0.00 0.00 92 1017.1
20260510121612 60 261 0.0 1.0 0.00 0.00 0.00 93 1017.2
20260510121110 60 261 0.0 1.0 0.00 0.00 0.00 94 1016.9
20260510120608 59 261 0.0 0.0 0.00 0.00 0.00 95 1016.9
20260510115559 58 261 0.0 0.0 0.00 0.00 0.00 96 1016.8
20260510115056 58 261 0.0 0.0 0.00 0.00 0.00 96 1016.4
20260510114552 57 261 0.0 0.0 0.00 0.00 0.00 96 1016.4
20260510114048 57 261 0.0 0.0 0.00 0.00 0.00 97 1016.3
20260510113544 56 261 0.0 0.0 0.00 0.00 0.00 98 1016.4
20260510113042 55 261 0.0 0.0 0.00 0.00 0.00 98 1016.2
20260510112538 54 261 0.0 0.0 0.00 0.00 0.00 98 1016.3
20260510112034 54 261 0.0 0.0 0.00 0.00 0.00 98 1016.3
20260510111531 53 261 0.0 0.0 0.00 0.00 0.00 98 1016.2
20260510111027 53 261 0.0 0.0 0.00 0.00 0.00 98 1015.9
20260510110523 53 261 0.0 0.0 0.00 0.00 0.00 98 1015.9
20260510110020 53 261 0.0 0.0 0.00 0.00 0.00 98 1015.7
20260510105515 53 260 0.0 0.0 0.00 0.00 0.00 98 1015.7
20260510105010 53 260 0.0 0.0 0.00 0.00 0.00 98 1015.6
20260510104507 53 260 0.0 0.0 0.00 0.00 0.00 98 1015.6
20260510104004 53 260 0.0 0.0 0.00 0.00 0.00 98 1015.3
20260510103501 53 260 0.0 0.0 0.00 0.00 0.00 98 1015.3
20260510102956 53 260 0.0 0.0 0.00 0.00 0.00 98 1015.0
20260510102452 53 260 0.0 0.0 0.00 0.00 0.00 98 1015.1
20260510101949 53 260 0.0 0.0 0.00 0.00 0.00 98 1015.2
20260510101446 53 260 0.0 0.0 0.00 0.00 0.00 98 1015.2
20260510100944 53 260 0.0 0.0 0.00 0.00 0.00 98 1015.1
20260510100441 54 260 0.0 0.0 0.00 0.00 0.00 98 1015.0
20260510095937 54 260 0.0 0.0 0.00 0.00 0.00 98 1014.8
20260510095432 54 260 0.0 0.0 0.00 0.00 0.00 98 1014.6
20260510094931 54 260 0.0 0.0 0.00 0.00 0.00 98 1014.8
20260510094427 54 260 0.0 0.0 0.00 0.00 0.00 98 1014.6
20260510093923 54 260 0.0 0.0 0.00 0.00 0.00 98 1014.6
20260510093418 55 260 0.0 0.0 0.00 0.00 0.00 98 1014.7
20260510092915 55 260 0.0 0.0 0.00 0.00 0.00 98 1014.6
20260510092413 55 260 0.0 0.0 0.00 0.00 0.00 98 1014.5
20260510091907 55 260 0.0 0.0 0.00 0.00 0.00 98 1014.6
20260510091404 55 260 0.0 0.0 0.00 0.00 0.00 98 1014.6
20260510090901 55 260 0.0 0.0 0.00 0.00 0.00 98 1014.5
20260510090357 56 261 0.0 0.0 0.00 0.00 0.00 98 1014.5
20260510085853 55 261 0.0 0.0 0.00 0.00 0.00 98 1014.4
20260510085348 56 261 0.0 0.0 0.00 0.00 0.00 98 1014.3
20260510084844 56 261 0.0 0.0 0.00 0.00 0.00 97 1014.3
20260510084341 56 261 0.0 0.0 0.00 0.00 0.00 97 1014.2
20260510083838 56 261 0.0 0.0 0.00 0.00 0.00 97 1014.2
20260510083335 56 261 0.0 0.0 0.00 0.00 0.00 97 1014.1
20260510082830 56 261 0.0 0.0 0.00 0.00 0.00 97 1014.1
20260510082328 56 261 0.0 0.0 0.00 0.00 0.00 97 1013.9
20260510081826 56 261 0.0 1.0 0.00 0.00 0.00 97 1013.9
20260510081323 56 261 0.0 0.0 0.00 0.00 0.00 97 1013.9
20260510080819 56 261 0.0 0.0 0.00 0.00 0.00 97 1013.7
20260510080313 57 261 0.0 0.0 0.00 0.00 0.00 97 1013.7
20260510075810 57 261 0.0 0.0 0.00 0.00 0.00 97 1013.9
20260510075308 57 261 0.0 0.0 0.00 0.00 0.00 97 1013.8
20260510074804 57 261 0.0 0.0 0.00 0.00 0.00 97 1013.6
20260510074301 57 261 0.0 0.0 0.00 0.00 0.00 97 1013.6
20260510073757 57 261 0.0 0.0 0.00 0.00 0.00 97 1013.7
20260510073253 57 261 0.0 0.0 0.00 0.00 0.00 97 1013.6
20260510072749 57 261 0.0 1.0 0.00 0.00 0.00 96 1013.6
20260510072246 57 261 0.0 1.0 0.00 0.00 0.00 96 1013.5
20260510071742 57 261 0.0 0.0 0.00 0.00 0.00 96 1013.4
20260510071239 58 261 0.0 0.0 0.00 0.00 0.00 97 1013.5
20260510070738 58 261 0.0 1.0 0.00 0.00 0.00 97 1013.2
20260510070235 58 261 0.0 0.0 0.00 0.00 0.00 97 1013.4
20260510065734 58 261 0.0 0.0 0.00 0.00 0.00 97 1013.3
20260510065231 58 261 0.0 0.0 0.00 0.00 0.00 97 1013.2
20260510064728 58 261 0.0 0.0 0.00 0.00 0.00 97 1013.4
20260510064226 58 261 0.0 0.0 0.00 0.00 0.00 97 1013.4
20260510063722 58 261 0.0 0.0 0.00 0.00 0.00 97 1013.4
20260510063218 59 261 0.0 0.0 0.00 0.00 0.00 96 1013.3
20260510062715 59 261 0.0 0.0 0.00 0.00 0.00 96 1013.3
20260510062211 59 261 0.0 0.0 0.00 0.00 0.00 96 1013.3
20260510061706 59 261 0.0 0.0 0.00 0.00 0.00 96 1013.6
20260510061204 58 261 0.0 0.0 0.00 0.00 0.00 96 1013.4
20260510060700 58 261 0.0 0.0 0.00 0.00 0.00 96 1013.4
20260510060157 59 261 0.0 0.0 0.00 0.00 0.00 96 1013.4
20260510055653 59 261 0.0 0.0 0.00 0.00 0.00 96 1013.4
20260510055151 59 261 0.0 1.0 0.00 0.00 0.00 96 1013.7
20260510054646 59 261 0.0 0.0 0.00 0.00 0.00 96 1013.7
20260510054143 59 261 0.0 0.0 0.00 0.00 0.00 96 1013.7
20260510053641 59 261 0.0 0.0 0.00 0.00 0.00 96 1013.6
20260510053138 59 261 0.0 0.0 0.00 0.00 0.00 96 1013.6
20260510052634 59 261 0.0 0.0 0.00 0.00 0.00 96 1013.7
20260510052131 59 261 0.0 0.0 0.00 0.00 0.00 96 1013.8
20260510051626 59 261 0.0 0.0 0.00 0.00 0.00 96 1013.8
20260510051123 60 261 0.0 0.0 0.00 0.00 0.00 95 1013.8
20260510050620 60 261 0.0 0.0 0.00 0.00 0.00 95 1014.0
20260510050118 60 261 0.0 0.0 0.00 0.00 0.00 95 1014.0
20260510045615 60 261 0.0 0.0 0.00 0.00 0.00 95 1014.1
20260510045111 60 261 0.0 0.0 0.00 0.00 0.00 95 1013.8
20260510044607 60 261 0.0 0.0 0.00 0.00 0.00 95 1014.0
20260510044105 60 261 0.0 0.0 0.00 0.00 0.00 95 1013.9
20260510043600 60 261 0.0 0.0 0.00 0.00 0.00 94 1013.7
20260510043056 60 261 0.0 0.0 0.00 0.00 0.00 94 1014.0
20260510042555 60 261 0.0 0.0 0.00 0.00 0.00 95 1013.7
20260510042050 60 261 0.0 0.0 0.00 0.00 0.00 94 1013.9
20260510041548 60 262 0.0 0.0 0.00 0.00 0.00 94 1014.0
20260510041045 60 255 0.0 0.0 0.00 0.00 0.00 93 1014.1
20260510040542 61 251 0.0 0.0 0.00 0.00 0.00 94 1014.1
20260510040038 61 251 0.0 0.0 0.00 0.00 0.00 93 1013.8
20260510035534 61 252 0.0 0.0 0.00 0.00 0.00 93 1013.9
20260510035033 61 252 0.0 0.0 0.00 0.00 0.00 93 1014.0
20260510034532 61 252 0.0 0.0 0.00 0.00 0.00 93 1014.0
20260510034028 61 252 0.0 0.0 0.00 0.00 0.00 93 1013.9
20260510033524 62 252 0.0 0.0 0.00 0.00 0.00 92 1014.1
20260510033023 62 252 0.0 0.0 0.00 0.00 0.00 92 1014.0
20260510032519 62 252 0.0 0.0 0.00 0.00 0.00 92 1014.1
20260510032014 62 252 0.0 0.0 0.00 0.00 0.00 92 1013.9
20260510031509 62 252 0.0 0.0 0.00 0.00 0.00 92 1013.9
20260510031006 62 252 0.0 0.0 0.00 0.00 0.00 91 1013.8
20260510030456 62 252 0.0 0.0 0.00 0.00 0.00 90 1013.8
20260510025953 62 252 0.0 0.0 0.00 0.00 0.00 90 1013.9
20260510025451 62 252 0.0 0.0 0.00 0.00 0.00 90 1014.0
20260510024948 63 252 0.0 0.0 0.00 0.00 0.00 89 1013.8
20260510024444 63 252 0.0 0.0 0.00 0.00 0.00 89 1014.1
20260510023940 63 252 0.0 0.0 0.00 0.00 0.00 89 1013.8
20260510023436 63 253 0.0 0.0 0.00 0.00 0.00 89 1013.9
20260510022933 64 253 0.0 0.0 0.00 0.00 0.00 88 1013.8
20260510022432 64 253 0.0 0.0 0.00 0.00 0.00 87 1013.6
20260510021931 64 253 0.0 0.0 0.00 0.00 0.00 87 1013.6
20260510021430 64 253 0.0 0.0 0.00 0.00 0.00 86 1013.7
20260510020927 65 253 0.0 0.0 0.00 0.00 0.00 86 1013.7
20260510020426 65 253 0.0 0.0 0.00 0.00 0.00 85 1013.6
20260510015922 65 253 0.0 0.0 0.00 0.00 0.00 85 1013.5
20260510015418 65 253 0.0 0.0 0.00 0.00 0.00 84 1013.4
20260510014913 66 253 0.0 0.0 0.00 0.00 0.00 84 1013.4
20260510014412 66 255 1.0 1.0 0.00 0.00 0.00 84 1013.3
20260510013908 66 224 0.0 0.0 0.00 0.00 0.00 84 1013.2
20260510013403 66 224 0.0 0.0 0.00 0.00 0.00 83 1013.4
20260510012858 66 224 0.0 0.0 0.00 0.00 0.00 83 1012.9
20260510012353 66 224 0.0 0.0 0.00 0.00 0.00 82 1013.1
20260510011848 67 223 0.0 0.0 0.00 0.00 0.00 82 1013.1
20260510011343 67 223 0.0 0.0 0.00 0.00 0.00 81 1012.9
20260510010840 67 223 0.0 0.0 0.00 0.00 0.00 81 1012.7
20260510010338 67 224 0.0 1.0 0.00 0.00 0.00 80 1012.6
20260510005834 67 214 1.0 1.0 0.00 0.00 0.00 81 1012.9
20260510005330 67 206 0.0 1.0 0.00 0.00 0.00 81 1012.7
20260510004828 66 203 0.0 0.0 0.00 0.00 0.00 81 1012.4
20260510004326 66 245 0.0 0.0 0.00 0.00 0.00 81 1012.5
20260510003823 66 246 0.0 1.0 0.00 0.00 0.00 81 1012.4
20260510003320 66 247 1.0 1.0 0.00 0.00 0.00 81 1012.2
20260510002818 66 198 0.0 0.0 0.00 0.00 0.00 81 1011.8
20260510002316 67 198 0.0 0.0 0.00 0.00 0.00 80 1012.2
20260510001812 67 198 0.0 0.0 0.00 0.00 0.00 80 1012.0
20260510001311 67 198 0.0 0.0 0.00 0.00 0.00 79 1011.7
20260510000806 67 197 0.0 0.0 0.00 0.00 0.00 79 1011.7
20260510000304 68 197 0.0 0.0 0.00 0.00 0.00 79 1011.8
20260509235801 68 197 0.0 0.0 0.00 0.00 0.00 78 1011.8
20260509235257 69 198 0.0 0.0 0.00 0.00 0.00 76 1011.4
20260509234753 69 221 1.0 1.0 0.00 0.00 0.00 74 1011.6
20260509234250 69 213 1.0 1.0 0.00 0.00 0.00 74 1011.5
20260509233748 69 227 0.0 2.0 0.00 0.00 0.00 73 1011.5
20260509233246 70 230 2.0 2.0 0.00 0.00 0.00 72 1011.3
20260509232741 70 226 0.0 2.0 0.00 0.00 0.00 73 1011.5
20260509232239 70 233 1.0 1.0 0.00 0.00 0.00 73 1011.4
20260509231735 70 199 2.0 3.0 0.00 0.00 0.00 72 1011.7
20260509231232 70 228 1.0 2.0 0.00 0.00 0.00 72 1011.4
20260509230730 70 228 2.0 3.0 0.00 0.00 0.00 72 1011.5
20260509230227 70 207 2.0 4.0 0.00 0.00 0.00 72 1011.6
20260509225721 71 234 1.0 6.0 0.00 0.00 0.00 72 1011.5